Theta_e
332 332 333 335 337 337 335 335 337 337 336 335 335 334 334 335 335 334 334 334 334 333 333 332 332 332 333 333 332 333 333 333 332 329 329 329 326 327 331 331 332 332 332 332 329 324 322 319 321 328 331 331 332 331 331 332 333 335 335 334 333 335 336
332 333 334 333 333 335 335 335 335 335 336 336 336 335 335 335 335 334 334 334 333 333 333 333 333 333 332 330 330 330 330 331 332 333 332 329 330 330 329 329 330 329 329 331 331 330 324 322 320 322 324 328 331 331 333 334 332 333 333 334 334 334 334
330 330 332 332 332 333 333 334 334 334 334 334 334 334 334 335 335 334 334 332 332 332 332 333 332 331 332 331 331 331 332 331 332 334 332 333 332 333 331 328 328 328 327 327 328 328 327 327 321 320 323 323 321 327 332 330 332 331 331 332 332 332 332
331 330 329 329 330 330 331 333 334 333 334 333 334 333 334 334 334 334 334 332 331 331 333 332 331 332 333 333 332 332 332 331 331 334 333 335 333 333 331 331 331 329 327 326 327 328 328 324 322 322 323 324 324 322 327 330 329 330 330 331 331 331 332
329 328 328 329 330 329 330 330 332 332 332 333 334 333 332 334 333 333 333 333 332 332 332 332 333 333 334 334 334 332 331 333 331 331 332 333 333 332 332 333 334 334 334 331 331 331 328 327 325 323 321 323 324 325 326 329 330 328 329 330 330 330 331
329 329 329 330 331 330 330 329 329 329 330 331 332 332 333 332 333 333 333 332 331 332 333 333 333 333 334 334 333 332 331 330 331 332 332 332 332 331 331 334 334 334 333 334 333 331 331 330 328 324 323 324 322 324 327 328 327 329 329 329 329 329 330
327 328 329 330 331 331 330 329 329 330 330 330 330 330 333 333 332 333 333 333 332 333 333 332 333 334 333 333 334 332 330 331 333 334 334 335 335 335 336 332 334 333 334 333 334 332 330 329 327 326 323 323 325 321 324 326 328 325 326 328 330 329 329
328 328 329 330 330 330 330 329 330 331 331 331 331 332 333 331 331 333 333 333 332 332 332 333 333 334 335 333 333 334 333 333 334 334 336 335 333 333 333 334 334 334 334 333 334 333 332 331 330 329 325 321 321 323 322 323 325 325 325 327 329 328 329
329 329 329 330 330 331 329 330 331 332 332 332 332 333 333 331 331 331 333 333 333 333 333 334 334 333 333 331 331 333 332 332 332 332 332 332 333 334 332 332 332 333 335 334 334 333 332 333 333 332 329 326 321 318 321 320 321 322 326 325 327 328 328
329 328 328 328 329 330 330 330 331 332 333 332 330 331 331 332 332 333 333 334 334 334 335 335 334 334 334 333 333 334 333 334 333 332 332 332 334 334 332 330 333 335 334 336 334 334 334 334 333 332 331 328 327 322 318 317 320 320 324 326 324 326 328
330 330 329 328 328 329 329 330 331 331 331 332 332 332 331 332 333 334 334 334 334 334 335 335 335 334 333 332 331 332 333 334 334 334 333 334 335 336 334 331 334 334 335 335 334 335 335 334 332 332 331 331 330 325 322 319 320 323 323 326 327 326 327
330 330 331 329 328 327 328 329 329 330 331 332 330 331 331 331 331 332 333 334 334 334 334 332 333 333 332 330 330 331 332 334 334 334 335 335 336 336 335 335 335 335 335 335 335 335 335 334 333 332 331 332 330 330 326 322 319 324 327 324 326 328 326
329 329 330 330 328 327 327 328 328 330 330 331 330 331 332 331 332 332 332 332 332 333 332 332 332 331 329 329 330 332 333 335 335 335 335 335 333 335 335 334 333 334 334 334 334 334 333 333 334 332 332 331 331 331 328 323 321 320 326 327 327 327 327
329 329 330 331 330 328 328 327 328 328 330 330 331 331 333 334 334 332 332 332 332 333 332 331 331 330 329 330 333 335 335 335 334 335 335 334 334 335 334 333 333 334 335 334 333 334 333 333 333 333 333 332 330 329 327 325 322 322 325 327 327 326 326
328 328 328 329 329 328 327 326 327 328 329 332 333 333 333 333 333 333 332 333 334 334 333 332 332 331 331 331 334 336 335 334 333 334 335 334 335 334 336 334 332 333 334 333 334 332 332 331 331 331 330 330 329 328 330 326 324 322 323 325 325 326 325
326 328 329 330 329 328 328 327 329 329 330 331 331 332 333 332 332 332 333 333 333 334 334 334 334 334 333 333 333 334 335 334 333 334 334 334 333 334 334 334 334 334 334 334 334 334 334 332 331 330 330 330 329 330 329 328 326 324 323 324 327 324 325
326 328 328 330 329 329 329 328 328 330 330 331 330 331 331 329 329 330 332 332 332 333 333 334 334 335 335 334 333 333 334 334 333 333 333 334 333 334 334 334 334 334 334 333 333 333 332 333 332 331 330 331 331 330 330 330 329 328 326 323 323 324 325
325 327 327 328 328 328 328 329 329 329 329 328 328 327 326 325 327 328 330 331 331 332 333 333 333 333 334 335 333 333 333 333 334 333 334 334 333 334 334 333 333 333 333 332 332 331 331 332 330 331 330 329 330 331 330 330 329 328 327 325 325 324 325
323 324 326 327 328 328 328 328 328 329 329 327 326 326 324 324 326 326 328 329 330 331 332 332 332 332 332 333 334 334 334 334 333 332 333 333 334 334 334 333 333 332 332 332 331 331 331 331 330 330 330 329 329 330 330 329 329 328 327 326 326 322 323
324 325 325 326 328 328 327 328 327 327 328 327 326 325 324 323 323 325 325 328 330 331 331 331 332 332 331 331 332 331 331 331 330 331 331 332 333 333 334 333 333 333 332 332 332 331 331 332 331 330 331 331 329 329 329 329 327 327 326 326 324 324 323
323 324 326 327 327 327 327 327 327 328 327 326 326 326 325 324 323 324 324 325 326 329 329 329 329 330 330 330 329 329 329 329 328 329 330 330 331 332 332 333 333 331 331 331 332 332 331 329 328 329 329 330 329 328 328 327 327 326 325 325 323 321 322
322 323 324 325 326 326 326 326 326 327 327 327 326 324 324 324 323 322 322 323 322 324 326 327 328 328 327 327 328 327 327 327 328 327 327 327 328 328 328 329 328 329 326 319 312 315 316 319 327 326 325 326 327 327 327 326 326 325 324 324 323 323 320
322 323 323 323 324 324 325 325 325 325 325 326 325 323 320 321 322 322 322 321 322 323 322 321 312 309 316 326 327 326 327 327 327 327 326 326 326 326 326 324 320 314 311 309 305 301 300 303 308 322 326 327 326 326 326 325 324 324 323 322 321 320 319
321 321 321 321 322 321 322 323 322 322 322 322 323 321 320 318 318 319 320 321 321 320 319 311 298 295 302 309 324 327 326 326 327 327 327 326 324 323 323 321 320 316 314 310 306 298 297 297 297 296 296 300 308 326 325 323 322 323 320 320 322 320 319
318 319 319 319 318 318 317 318 318 318 319 319 317 318 317 314 315 317 319 319 319 318 315 300 294 296 301 305 313 327 327 326 326 327 326 325 323 323 323 324 325 326 324 321 318 313 304 297 296 295 295 295 295 293 295 317 323 320 321 320 318 319 319
316 317 317 317 317 316 315 315 315 315 314 314 313 311 311 313 314 317 318 317 316 315 313 296 296 297 299 301 306 317 326 326 326 326 325 324 323 323 323 323 323 323 321 320 322 321 317 310 299 297 299 299 298 297 294 293 296 321 323 320 321 318 318
314 314 314 314 314 313 312 311 311 311 310 310 310 310 311 311 313 315 316 315 314 313 310 298 296 298 299 300 304 313 326 326 326 326 325 325 325 325 325 324 322 320 321 321 324 326 325 322 320 322 323 322 319 311 302 299 300 301 313 324 323 320 320
311 310 310 309 309 309 309 308 307 307 306 306 305 306 306 306 306 308 311 314 314 312 307 294 295 295 297 301 304 311 326 326 325 325 325 326 325 325 325 325 324 321 320 319 316 315 327 327 326 325 324 322 321 319 318 318 318 321 322 324 324 323 322
309 308 307 307 306 304 304 304 305 305 304 304 304 305 306 306 304 305 306 308 310 310 307 293 294 295 297 300 306 323 324 324 322 321 320 320 321 321 322 322 321 320 319 317 303 295 308 326 325 324 322 321 320 316 311 302 295 297 310 318 319 318 317
308 306 305 304 304 304 303 302 303 304 302 302 302 302 301 302 303 304 305 305 306 305 305 297 294 295 297 301 310 320 319 318 318 317 316 316 314 314 314 315 318 319 319 317 302 295 298 310 324 322 321 320 319 318 315 312 300 295 294 293 292 292 292
307 305 304 303 303 304 304 303 302 303 302 300 300 300 300 300 300 300 300 301 303 304 303 297 294 296 298 299 305 313 311 310 307 305 306 306 307 306 305 304 308 313 313 307 294 297 298 314 320 319 318 318 318 316 314 314 315 309 296 296 294 293 293
306 304 302 302 302 302 302 302 302 303 302 301 300 300 300 298 297 298 298 298 300 300 300 298 293 294 296 299 309 315 312 309 305 302 302 303 304 305 303 300 296 298 302 297 291 294 299 313 320 316 314 313 311 310 308 311 313 314 314 313 310 309 305
304 303 302 302 302 302 302 302 302 301 301 300 299 299 298 297 296 296 297 297 296 297 298 297 294 292 294 295 300 310 309 307 303 304 306 307 306 306 305 303 298 290 290 291 292 292 294 300 314 316 316 314 311 306 309 310 311 311 309 308 307 306 305
303 303 303 302 302 301 301 301 301 301 301 300 299 298 297 297 296 295 296 296 296 296 296 296 294 291 292 293 295 301 308 307 306 306 305 305 307 307 305 302 299 291 290 290 291 292 293 295 301 314 314 311 307 303 304 308 305 302 307 306 306 306 306
303 303 303 302 301 301 301 300 300 300 300 299 298 298 297 297 296 295 296 296 296 295 296 295 296 292 291 292 292 295 302 303 304 305 303 303 302 302 302 300 297 291 289 290 290 291 292 293 295 305 299 291 291 295 306 307 308 309 309 308 307 306 307
301 301 301 301 300 299 300 299 299 300 299 298 297 297 297 297 297 296 296 296 296 296 296 295 292 293 291 291 291 291 292 296 294 303 302 299 298 298 299 297 294 290 289 289 290 291 292 293 297 297 289 291 292 294 300 307 307 307 306 306 306 305 304
300 299 300 300 299 299 299 299 298 298 298 297 296 296 296 296 296 295 295 295 297 297 297 296 294 291 292 290 290 290 290 291 293 298 299 298 298 298 297 296 292 290 290 290 289 290 290 292 295 290 291 291 293 298 306 305 304 305 303 303 303 302 302
Wind_Speed
8 7 5 6 6 5 7 8 7 7 8 9 9 9 9 10 10 9 8 10 9 9 8 8 7 7 7 6 7 6 6 6 8 8 10 9 11 10 8 5 2 1 6 3 4 5 4 7 6 4 3 4 3 4 4 5 4 3 3 3 3 3 2
7 6 5 5 5 7 8 7 7 7 8 9 9 10 10 11 10 9 10 9 8 8 8 7 7 8 8 8 8 6 7 7 7 5 7 9 9 9 9 6 4 4 6 2 4 3 4 5 5 7 5 3 2 4 3 3 2 3 4 3 3 2 1
6 6 6 6 7 7 8 9 8 8 8 8 8 9 9 9 9 9 10 10 8 7 6 8 7 8 9 7 10 11 11 10 8 6 8 9 9 8 9 7 7 6 5 4 4 5 2 2 3 6 6 7 6 4 4 4 4 3 2 2 2 2 2
9 7 7 8 7 9 10 10 8 9 8 8 8 8 10 10 9 10 9 8 5 7 8 7 7 8 9 9 11 11 10 10 7 7 9 8 8 8 9 8 7 8 7 6 6 5 4 4 4 5 5 6 5 6 4 3 3 4 3 2 3 3 2
9 7 8 10 9 9 7 8 8 8 9 8 7 7 8 8 8 7 7 8 9 9 8 6 6 7 7 9 10 10 12 11 9 9 9 8 10 8 10 7 7 6 4 3 4 4 4 3 4 4 5 6 5 4 5 4 5 4 4 3 3 2 2
8 9 8 9 7 6 5 7 8 8 7 7 7 7 7 9 7 8 8 8 8 8 6 6 8 7 7 9 10 11 9 10 10 11 9 10 11 9 10 8 7 6 5 2 2 3 2 3 3 4 4 6 4 5 4 5 4 5 4 4 4 3 2
7 7 8 8 6 5 5 8 8 8 7 7 6 9 7 9 9 8 8 7 7 6 6 6 7 9 10 10 9 10 12 11 10 12 10 10 9 9 7 7 6 6 5 3 3 3 4 5 5 5 6 5 4 4 3 4 4 5 4 3 3 2 2
4 6 6 7 7 6 5 8 9 8 7 5 7 8 7 9 8 7 8 9 9 9 8 8 8 9 8 7 6 6 8 7 8 8 6 6 8 10 7 6 6 6 5 5 4 4 5 5 5 6 6 7 5 4 4 4 4 6 3 4 4 4 2
4 5 5 5 6 5 7 8 9 7 6 6 7 6 10 10 8 10 10 11 10 8 10 11 10 8 7 7 6 8 9 7 7 9 7 8 8 8 10 7 7 6 5 5 5 4 5 4 4 5 5 5 6 6 4 5 5 5 4 4 4 3 3
4 5 6 7 9 9 8 7 8 6 7 7 6 7 9 10 9 10 10 10 10 10 10 9 8 7 7 7 7 7 7 7 8 9 8 7 8 8 6 5 6 5 5 4 4 4 4 4 5 5 6 5 4 4 5 4 5 4 6 6 4 4 4
7 8 9 10 9 8 6 5 5 5 6 6 6 6 8 9 8 9 9 9 9 9 8 7 8 7 6 5 3 4 5 6 6 6 7 8 7 7 8 9 7 5 5 5 5 5 5 5 5 6 6 4 4 4 3 2 3 3 3 5 4 3 4
6 8 10 11 9 8 7 5 4 6 8 6 4 4 5 5 4 6 7 8 8 8 8 8 8 7 8 7 8 7 7 7 7 7 7 6 5 6 7 7 6 5 5 6 5 5 5 5 6 6 5 4 4 3 3 2 2 3 2 5 5 1 4
6 6 8 10 10 10 8 7 5 4 7 7 5 3 5 7 8 8 8 8 8 9 9 7 7 8 8 7 7 7 6 8 7 6 5 5 4 6 7 7 6 5 5 5 5 5 5 5 5 5 5 5 4 3 3 2 1 4 3 3 5 4 4
5 5 7 8 9 11 9 8 8 7 7 8 8 9 9 9 9 9 8 8 8 10 10 9 7 6 5 6 6 6 6 6 7 6 5 6 5 6 6 6 6 6 6 6 5 5 5 6 6 5 5 5 5 5 4 3 2 4 4 2 3 3 4
4 4 3 6 9 8 9 7 7 8 10 11 9 10 10 9 8 8 7 8 8 9 10 10 7 6 7 8 8 5 6 7 7 7 6 6 5 4 5 6 6 6 6 6 6 6 6 6 6 6 6 6 6 6 5 4 2 2 5 4 4 3 4
4 2 4 7 8 8 7 6 4 5 8 7 8 8 8 6 7 8 8 7 8 8 9 11 10 10 10 10 8 6 6 7 7 7 7 7 6 5 5 5 6 6 4 5 6 5 5 6 6 6 7 6 6 6 6 5 3 3 4 4 4 5 5
4 5 6 5 7 6 6 7 6 7 6 5 6 5 1 1 2 5 7 8 8 7 8 8 8 8 8 8 8 8 7 6 7 7 7 6 6 6 6 6 5 6 6 6 6 5 6 6 6 5 6 6 5 6 5 5 4 2 2 4 5 5 5
5 7 6 5 5 5 6 7 8 10 9 7 5 4 4 3 2 4 5 7 7 7 7 8 8 7 6 6 7 7 7 6 6 6 5 5 5 6 6 6 6 6 6 6 6 6 6 7 6 5 6 5 5 5 5 5 5 4 3 3 4 2 2
4 5 6 5 5 4 5 6 7 6 7 7 7 6 7 6 5 6 5 5 6 6 6 7 8 8 7 6 5 5 5 5 5 4 4 4 5 5 5 5 7 7 7 7 7 6 6 7 6 6 6 6 6 5 5 5 5 4 4 3 3 4 3
5 6 5 5 4 4 5 5 6 7 7 6 7 7 7 7 6 6 2 2 5 6 6 6 6 6 7 6 6 6 5 5 5 4 4 4 4 4 4 5 6 6 6 6 6 7 6 6 5 6 5 4 4 4 5 5 5 5 4 4 3 3 4
6 6 6 5 4 4 4 5 6 6 7 6 6 7 6 6 5 4 2 2 3 3 5 5 5 5 6 6 6 6 6 6 6 5 5 5 5 4 4 4 4 3 2 2 3 4 5 4 3 4 3 4 4 5 5 4 5 5 5 4 4 4 4
6 6 5 4 4 4 4 4 5 6 6 5 5 6 7 5 2 5 4 3 4 3 3 4 4 5 6 5 5 6 6 6 6 6 6 6 5 5 4 4 3 3 4 6 7 6 5 3 4 4 3 5 5 5 5 4 5 4 4 4 4 3 4
7 6 4 2 2 3 3 3 4 5 6 5 6 6 6 6 3 5 5 4 4 3 3 2 3 1 5 6 6 5 5 6 6 7 7 7 6 6 6 6 7 11 9 8 9 9 9 8 8 4 4 6 6 5 4 4 4 4 4 4 4 4 4
7 6 5 4 4 3 4 5 4 4 4 4 5 6 5 6 5 4 4 5 5 4 3 4 7 2 5 8 7 7 7 6 7 7 8 8 8 7 7 8 8 9 9 9 9 12 11 12 12 12 11 11 8 2 4 5 4 4 4 3 2 3 3
8 8 7 6 4 5 7 4 4 4 5 6 6 6 6 7 6 4 5 6 6 4 4 7 4 2 7 7 6 7 7 7 7 7 8 8 8 7 8 7 6 5 5 7 8 9 11 12 13 14 14 13 12 12 10 4 2 3 3 2 3 2 2
10 10 9 6 6 6 6 6 5 6 8 6 6 8 7 6 6 5 6 7 6 5 5 8 5 2 6 9 8 8 6 7 7 8 8 9 8 7 6 6 5 4 4 5 7 8 9 9 11 14 14 14 13 12 10 10 9 5 1 2 2 3 2
11 11 9 7 7 7 8 8 7 6 6 7 8 7 8 7 5 6 6 7 7 7 7 7 8 8 5 6 9 6 7 7 7 8 9 8 7 7 6 6 6 5 4 3 4 7 8 9 8 7 7 7 8 8 9 10 9 9 6 3 3 4 3
12 11 10 9 8 9 8 6 7 6 6 8 8 8 8 8 7 7 7 6 8 9 7 9 9 9 9 6 4 8 7 7 7 7 6 6 6 5 5 5 6 6 5 4 2 2 5 6 7 7 7 7 7 7 7 6 5 4 4 5 6 6 5
11 11 10 10 10 9 8 8 7 5 9 9 8 9 10 8 8 9 8 8 8 11 9 12 8 9 9 8 5 5 6 6 7 7 7 7 6 5 4 4 4 5 5 5 3 1 2 4 7 7 7 7 8 8 8 6 6 8 6 5 5 5 5
12 11 11 11 12 12 10 8 7 5 8 9 9 9 10 8 7 9 10 9 9 8 8 11 11 12 12 10 7 7 7 7 7 8 7 6 5 6 6 5 4 4 4 4 2 4 5 3 6 7 8 8 7 7 7 7 8 10 11 11 11 11 11
11 12 12 11 12 11 11 9 9 7 6 10 11 9 9 8 9 9 10 11 10 9 9 11 12 14 16 16 12 10 8 8 8 7 7 7 7 8 11 16 10 5 5 3 4 4 6 6 6 7 7 8 8 8 6 5 6 7 10 13 12 11 11
12 12 12 11 10 11 11 11 9 9 8 8 10 7 9 9 10 11 10 10 15 12 10 11 14 11 13 12 9 6 7 7 7 6 6 7 6 5 6 10 13 9 6 5 7 8 5 3 6 6 5 7 7 7 4 4 6 7 7 8 7 6 8
12 12 12 11 10 11 10 10 11 11 10 9 9 9 8 10 13 10 10 11 11 11 11 10 12 14 13 12 9 6 3 7 7 5 4 5 6 5 5 5 7 10 9 10 11 10 10 9 7 5 5 6 7 6 4 5 5 4 6 7 6 6 6
12 11 11 11 10 11 11 11 11 11 11 11 11 10 10 11 12 11 11 10 10 12 12 11 11 15 14 14 13 9 5 6 5 5 5 5 4 5 4 5 4 9 11 10 9 10 11 10 8 6 6 5 4 5 3 6 6 6 8 7 6 6 5
11 9 9 9 11 11 9 9 11 12 11 11 12 11 11 11 11 10 9 9 11 10 12 15 9 13 16 17 16 15 8 6 5 6 7 5 6 6 6 5 5 7 9 10 11 11 11 11 11 8 7 9 8 6 5 5 5 5 6 6 6 6 5
11 8 9 10 10 10 9 9 9 8 9 10 11 12 13 10 9 9 9 8 8 9 9 10 15 11 16 16 16 15 13 8 8 7 7 7 6 5 5 5 5 8 9 10 11 11 11 11 11 7 8 8 8 6 4 5 5 6 6 6 6 6 6
11 9 9 8 10 10 9 8 9 9 9 9 10 10 9 7 9 9 9 9 9 9 10 8 11 16 13 15 13 13 13 12 11 8 7 6 4 4 4 5 6 7 10 11 13 14 14 12 8 9 8 7 5 4 6 6 6 6 6 6 7 6 6
Wind_Direction
271 280 274 260 265 251 242 241 239 235 228 224 214 205 202 201 195 190 188 193 186 186 187 192 178 164 144 171 179 192 184 166 177 184 187 183 190 191 192 192 182 165 184 187 200 188 178 174 182 204 202 185 176 185 199 194 194 196 191 205 212 214 201
264 268 258 240 240 246 251 250 245 241 234 224 214 204 202 201 185 185 182 185 188 186 193 186 176 163 156 160 176 186 194 195 195 188 176 194 197 190 182 185 172 161 170 177 172 199 182 160 162 185 177 153 181 171 189 171 181 190 218 209 205 185 170
241 244 243 244 246 249 254 252 249 245 238 228 215 206 204 198 189 183 177 181 181 184 196 186 176 170 165 172 184 194 201 205 200 191 199 198 201 192 191 174 169 162 167 176 188 182 159 209 165 180 181 178 181 172 179 187 178 166 197 205 188 167 181
248 243 243 243 245 249 253 255 249 254 248 235 214 213 207 200 195 187 184 171 168 192 194 188 181 176 174 181 196 196 198 195 187 191 213 203 197 194 189 183 183 179 176 185 185 187 182 169 167 155 174 192 176 154 186 153 154 168 170 184 183 174 152
249 241 239 245 243 244 248 263 261 253 251 240 226 215 211 204 196 180 185 183 191 188 190 186 185 182 186 194 188 183 198 189 184 192 209 198 196 196 195 198 199 198 190 199 176 189 191 174 170 154 169 181 179 185 153 149 160 153 170 169 151 138 166
260 251 252 249 242 234 234 264 262 246 248 244 234 225 215 203 199 184 197 197 193 193 186 178 188 194 195 201 187 184 179 191 201 201 198 200 197 196 192 197 203 203 208 200 184 180 175 165 175 155 151 173 181 172 161 178 173 167 158 152 150 159 171
257 251 253 251 242 232 232 240 239 242 240 240 233 225 211 190 193 192 187 180 188 178 178 171 188 204 201 202 191 183 189 197 197 198 203 196 196 201 187 188 210 202 202 186 183 174 173 177 176 164 151 169 184 174 161 199 176 190 172 173 166 160 161
267 268 264 262 256 245 249 261 258 250 246 237 233 215 201 192 190 172 182 181 178 175 180 194 198 201 193 184 190 199 183 199 197 197 197 198 197 192 190 198 200 202 193 191 191 195 186 190 179 166 164 161 169 186 179 189 194 226 174 173 180 171 177
208 215 246 255 251 237 240 253 254 237 241 240 231 216 207 195 189 198 195 192 183 180 184 196 190 187 182 183 182 200 195 178 184 198 180 206 212 186 192 185 215 208 190 187 196 193 200 188 180 170 183 179 168 172 193 196 211 217 206 196 169 182 175
216 211 215 223 229 220 228 236 252 244 243 237 219 215 206 200 197 199 195 192 190 189 188 184 180 183 178 187 198 198 194 180 193 199 205 203 204 181 191 195 214 206 184 180 195 189 189 188 191 187 195 196 198 167 171 193 199 217 190 209 205 163 188
196 201 201 205 204 208 208 233 278 261 242 235 221 205 194 196 195 193 192 187 188 182 178 171 178 173 172 174 148 217 215 199 193 190 193 208 196 192 169 195 198 198 175 180 187 187 184 189 195 195 201 205 204 204 167 179 133 188 161 186 215 148 172
226 206 199 207 198 198 207 198 219 250 258 232 230 193 185 185 167 187 193 190 180 172 162 174 169 157 162 171 183 193 197 195 189 187 190 192 185 179 176 179 184 178 169 182 176 182 185 188 199 197 197 204 196 220 182 191 144 126 214 163 185 151 131
263 240 218 200 188 198 194 185 183 225 241 238 215 242 197 195 192 186 191 188 177 160 171 173 165 165 168 179 187 195 181 191 183 174 168 180 173 180 174 175 174 172 168 176 180 180 185 190 194 197 191 195 187 194 190 191 1 106 175 158 148 161 148
267 257 241 217 198 188 181 174 170 189 219 226 208 209 211 202 195 191 183 180 172 167 165 161 168 162 163 176 193 187 173 184 184 171 168 168 175 175 175 172 169 166 166 178 172 173 181 180 185 196 192 186 182 183 190 191 173 111 127 150 168 157 147
247 218 230 224 216 195 176 178 168 191 210 218 206 204 203 200 196 181 178 177 172 159 158 159 169 164 172 178 186 175 172 182 184 171 174 173 164 175 171 177 170 162 176 177 168 176 175 180 186 190 188 190 188 187 204 201 186 148 135 156 170 149 161
268 238 206 208 203 194 171 160 175 209 222 207 207 210 203 190 190 183 177 173 167 159 160 158 167 174 176 177 171 170 175 179 179 173 183 180 175 167 174 176 173 165 162 170 171 179 173 185 189 191 187 188 189 186 192 208 195 173 154 153 171 174 182
267 259 238 222 208 185 151 157 165 195 213 213 204 213 190 177 199 188 174 168 166 163 159 156 160 168 170 171 169 167 172 175 181 186 185 177 168 174 181 179 170 166 170 174 177 175 185 184 190 188 192 182 187 184 188 197 219 222 180 159 181 198 174
245 245 237 233 233 211 182 181 187 195 178 169 150 125 98 93 253 257 209 165 160 159 159 156 157 161 163 167 170 164 166 169 177 176 169 161 163 176 176 182 165 173 179 178 173 180 181 185 186 184 190 181 191 181 187 199 208 217 211 207 142 176 154
260 246 247 240 229 220 209 198 188 182 177 166 163 154 148 144 153 235 224 157 150 150 151 155 160 162 162 164 158 150 149 150 153 155 153 160 166 169 177 172 167 177 183 184 177 176 179 183 183 188 187 188 186 180 192 195 210 214 222 222 185 155 185
305 277 261 255 243 230 219 202 184 175 179 168 156 152 150 160 149 200 229 138 143 143 143 147 148 151 153 153 149 143 139 140 140 134 138 143 149 161 169 171 176 179 187 190 176 176 175 175 182 186 186 179 189 179 186 198 203 204 214 210 189 193 171
315 302 288 274 253 238 224 202 186 175 174 158 157 152 153 148 137 143 125 122 96 114 131 138 141 146 146 145 142 142 145 141 134 126 124 125 129 139 154 164 144 136 157 170 191 167 167 168 165 187 180 191 189 189 195 191 196 202 206 209 212 192 197
337 315 300 284 261 242 229 198 178 172 167 148 123 113 92 72 115 123 125 110 107 106 130 136 151 150 143 141 140 146 148 145 140 132 125 119 118 118 121 92 94 106 79 76 67 70 69 73 175 174 171 187 183 186 187 188 191 199 204 208 200 197 193
344 337 325 305 259 241 234 190 156 163 160 142 126 108 113 124 141 123 124 107 105 101 87 70 20 39 148 147 147 139 136 139 141 137 131 123 112 103 97 87 76 73 72 79 80 82 82 73 47 51 138 164 163 166 171 178 183 193 200 199 205 191 205
1 10 357 26 34 34 47 46 40 55 57 76 88 94 103 99 81 74 96 110 98 85 69 42 359 333 126 135 139 141 141 137 138 138 134 129 122 114 105 102 105 104 101 95 83 80 82 76 73 68 53 42 27 37 169 161 171 183 186 197 166 199 223
13 22 38 56 69 69 80 68 41 57 66 63 66 67 61 67 73 71 82 85 75 63 59 10 348 216 143 136 137 134 135 139 141 137 130 123 120 115 111 106 101 95 94 102 108 96 79 80 86 81 75 67 60 50 34 29 151 168 182 180 171 172 198
25 32 35 33 38 49 60 62 42 54 68 61 68 70 59 63 79 81 82 80 70 55 52 12 56 98 136 130 128 133 135 140 139 130 124 118 116 118 119 114 110 92 81 89 114 109 108 98 89 94 96 88 73 66 61 53 35 23 137 131 124 124 131
32 38 35 28 29 43 50 55 43 37 55 54 61 61 61 46 40 66 81 88 78 62 52 23 64 80 89 130 132 120 132 126 124 122 121 118 119 126 129 128 124 116 109 82 97 124 131 130 133 128 112 94 87 72 59 49 49 42 27 61 86 107 92
32 35 38 35 34 39 42 46 60 50 46 49 44 51 45 46 32 29 27 60 81 70 51 28 67 82 88 76 82 119 118 110 104 97 93 98 104 106 113 113 114 122 126 121 77 2 128 129 122 115 108 100 93 81 64 47 35 41 56 60 76 86 83
37 34 33 38 44 44 38 35 37 48 76 72 54 54 55 49 44 47 36 36 67 77 48 24 45 67 77 83 67 88 91 93 97 99 98 99 97 92 83 82 104 111 119 121 113 359 10 116 122 113 104 103 104 91 72 57 31 11 17 56 72 75 74
40 39 36 39 44 46 41 35 27 17 69 67 72 62 53 47 38 45 48 48 48 54 48 22 43 57 50 50 79 78 64 69 88 91 88 95 71 63 51 46 65 101 113 119 138 190 189 186 121 117 116 117 110 99 89 82 68 63 62 59 64 67 69
44 48 44 41 43 45 45 43 41 25 61 89 69 67 69 54 49 41 41 40 37 53 42 22 36 67 72 56 58 71 70 70 65 58 65 50 54 55 47 36 31 72 91 73 343 183 175 153 123 125 126 125 122 112 98 99 106 88 92 86 80 79 79
45 50 50 43 40 43 44 45 40 44 45 62 81 68 72 70 61 50 41 37 37 44 41 23 20 43 66 79 81 80 88 94 85 78 82 73 55 66 66 51 41 32 47 48 45 43 32 92 113 104 112 104 98 98 90 104 119 117 109 93 80 74 57
46 48 48 43 41 42 42 46 42 45 48 49 63 65 65 66 64 54 47 41 43 41 39 28 18 23 50 55 71 99 89 99 103 95 76 77 88 64 65 65 46 34 38 42 49 52 51 50 87 106 113 106 107 109 121 104 90 95 93 95 93 83 79
48 48 49 50 52 50 43 45 47 50 50 52 54 57 64 69 65 56 51 47 47 47 40 33 27 22 40 49 48 63 78 83 98 97 93 85 78 87 76 60 59 25 37 47 55 59 62 61 67 79 74 88 82 124 131 105 88 87 96 95 96 95 95
48 48 46 51 57 55 50 48 50 51 52 50 52 50 55 60 64 61 54 42 45 43 41 32 31 25 37 45 49 47 60 44 58 89 75 62 59 58 51 44 45 28 46 56 57 61 64 65 66 77 80 97 105 106 98 103 115 115 115 114 106 97 91
52 45 46 46 55 55 47 51 49 46 47 51 47 46 46 44 53 57 53 47 43 43 38 39 34 33 37 45 48 54 53 50 54 67 87 77 67 70 67 67 60 54 65 65 64 61 62 70 73 74 91 92 99 101 94 86 92 96 93 90 88 84 76
44 41 39 45 50 51 49 49 54 53 50 50 53 52 46 41 53 49 46 37 32 32 34 33 31 31 32 38 46 51 55 53 53 66 67 82 80 98 105 89 85 76 82 83 78 71 62 56 71 74 80 96 118 116 99 96 88 86 86 87 86 82 75